[[{"header":{"parameterUnit":"m.s-1","parameterCategory":1,"la1":30.2991,"la2":30.254,"lo1":-89.0895,"lo2":-89.0444,"dy":0.0017,"dx":0.0017,"nx":28,"ny":28,"refTime":"2024-12-03T03:00:00:Z","depth":0,"parameterNumber":2,"parameterNumberName":"U-component_of_WINDS"},"data":[0,0,0,0,0,0,0,0,0,0,0,0,0,0,0,0,0,0,0,0,0,0,0,0,0,0,0,0,0,0,0,0,0,0,0,0,0,0,0,0,0,0,0,0,0,0,0,0,0,0,0,0,0,0,0,0,0,0,-0.0039,-0.0039,0,-0.006,-0.0061,-0.0061,-0.0046,-0.0045,-0.0044,-0.0044,-0.0068,-0.0069,-0.007,0,0,0,0,0,0,0,0,0,0,0,0,0,0.0013,0.0012,-0.0039,-0.0039,-0.004,-0.006,-0.0061,-0.0061,-0.0046,-0.0045,-0.0044,-0.0043,-0.0067,-0.0069,-0.007,0,0,0,0,0,0,0,0,0,0,0,0,0,-0.0009,0.0012,-0.0039,-0.0035,-0.0034,-0.006,-0.0061,-0.0061,-0.0046,-0.0045,-0.0044,-0.0043,-0.0067,-0.0069,-0.0071,-0.0103,0,0,-0.0077,-0.0077,0,0,0,0,0,0,0,0,-0.0008,-0.0011,-0.0035,-0.0035,-0.0035,-0.0049,-0.0051,-0.0075,-0.0046,-0.0042,-0.0044,-0.0043,-0.0063,-0.0065,-0.0071,-0.0104,-0.0105,-0.0077,-0.0078,-0.0079,-0.0079,0,0,0,0,0,0,0,-0.0006,-0.001,-0.0048,-0.0035,-0.0035,-0.0032,-0.0034,-0.0055,-0.0058,-0.0042,-0.0041,-0.0044,-0.0062,-0.0069,-0.0072,-0.0105,-0.0077,-0.0078,-0.008,-0.008,-0.0164,-0.0165,0,0,0,0,0,0,-0.0005,-0.0009,-0.0047,-0.0048,-0.0018,-0.0034,-0.0036,-0.0046,-0.0057,-0.0058,-0.0044,-0.0043,-0.0067,-0.0069,-0.0072,-0.011,-0.0079,-0.008,-0.0082,-0.0163,-0.0164,-0.0166,0,0,0,0,0,0,-0.0004,-0.0008,-0.0046,-0.0028,-0.0033,-0.0036,-0.0047,-0.0047,-0.0054,-0.0059,-0.006,-0.0051,-0.0066,-0.007,-0.0095,-0.0111,-0.0081,-0.0083,-0.0162,-0.0164,-0.0165,-0.0187,0,0,0,0,0,0,-0.0002,-0.0008,-0.002,-0.0028,-0.0034,-0.0068,-0.0048,-0.0048,-0.0057,-0.0055,-0.0066,-0.0066,-0.0065,-0.0092,-0.0097,-0.0113,-0.0085,-0.016,-0.0163,-0.0165,-0.0184,-0.0189,-0.0192,0,0,0,0,0,-0.0,-0.0026,-0.0021,-0.0026,-0.0049,-0.0069,-0.0072,-0.007,-0.0058,-0.007,-0.0074,-0.0066,-0.0108,-0.0095,-0.01,-0.0117,-0.016,-0.0162,-0.0164,-0.0183,-0.0188,-0.0192,0,0,0,0,0,0,-0.0021,-0.0027,-0.0022,-0.0051,-0.0059,-0.0067,-0.0082,-0.0076,-0.0089,-0.0086,-0.0083,-0.0086,-0.0112,-0.0117,-0.0102,-0.0148,-0.0132,-0.0136,-0.0144,-0.0149,-0.0153,-0.0152,-0.0086,0,0,0,0,0,-0.0029,-0.0044,-0.0049,-0.0074,-0.0079,-0.008,-0.0089,-0.0086,-0.0095,-0.0099,-0.0104,-0.0114,-0.0129,-0.0139,-0.0154,-0.0185,-0.0186,-0.0199,-0.0203,-0.0206,-0.0209,-0.0225,-0.023,-0.0174,-0.0174,-0.0174,0,0,-0.0046,-0.0051,-0.0061,-0.0079,-0.0085,-0.0101,-0.0083,-0.0101,-0.0113,-0.0102,-0.0126,-0.0129,-0.014,-0.0168,-0.0181,-0.0173,-0.0225,-0.0209,-0.0211,-0.0213,-0.0228,-0.0233,-0.0238,-0.0175,-0.0175,-0.0175,0,0,-0.0085,-0.009,-0.0111,-0.0117,-0.0127,-0.0127,-0.0132,-0.0139,-0.0141,-0.0165,-0.0156,-0.017,-0.0197,-0.0204,-0.0211,-0.025,-0.0244,-0.0255,-0.0276,-0.0292,-0.0296,-0.03,-0.0314,-0.0319,-0.0258,-0.0258,-0.0258,0,-0.0105,-0.0128,-0.0123,-0.0142,-0.0149,-0.0138,-0.0159,-0.0166,-0.018,-0.0185,-0.0176,-0.0208,-0.0214,-0.0243,-0.0252,-0.0259,-0.0264,-0.0255,-0.0296,-0.03,-0.0303,-0.0316,-0.0322,-0.026,-0.026,-0.0259,-0.0259,0,-0.0152,-0.0168,-0.0185,-0.0197,-0.0206,-0.0226,-0.0224,-0.0234,-0.023,-0.0231,-0.0254,-0.0261,-0.0276,-0.0282,-0.0279,-0.0311,-0.0305,-0.0296,-0.028,-0.031,-0.0322,-0.0327,-0.0262,-0.0261,-0.0261,-0.026,0,0,-0.0207,-0.0214,-0.022,-0.0225,-0.0233,-0.0246,-0.0265,-0.0278,-0.0287,-0.0296,-0.0312,-0.0333,-0.0324,-0.0332,-0.0329,-0.0343,-0.0372,-0.0331,-0.0332,-0.0339,-0.0407,-0.0414,-0.042,-0.0367,-0.0368,-0.0369,-0.0406,0,-0.0246,-0.0278,-0.0273,-0.0304,-0.0319,-0.0307,-0.0323,-0.033,-0.0331,-0.0344,-0.0345,-0.036,-0.0347,-0.0351,-0.0364,-0.0366,-0.0386,-0.0363,-0.0382,-0.0383,-0.0381,-0.0427,-0.0435,-0.047,-0.0411,-0.0412,-0.0412,0,-0.0297,-0.0306,-0.0338,-0.0343,-0.0349,-0.0363,-0.0374,-0.0387,-0.0394,-0.0393,-0.0401,-0.0395,-0.0414,-0.0396,-0.0422,-0.0406,-0.0414,-0.0416,-0.0417,-0.0419,-0.04,-0.043,-0.0481,-0.0486,-0.042,-0.0419,-0.0419,0,-0.0333,-0.0354,-0.0376,-0.038,-0.0386,-0.0396,-0.0399,-0.0405,-0.0413,-0.0423,-0.0428,-0.044,-0.0447,-0.0456,-0.0453,-0.0441,-0.0479,-0.0462,-0.0479,-0.048,-0.0489,-0.0489,-0.0541,-0.0493,-0.0493,-0.0493,-0.0493,0,-0.0378,-0.0398,-0.0392,-0.0405,-0.0427,-0.0421,-0.0443,-0.0444,-0.0449,-0.0463,-0.0453,-0.0466,-0.0462,-0.0474,-0.0472,-0.0493,-0.0496,-0.0497,-0.0496,-0.0498,-0.0498,-0.0503,-0.0501,-0.0494,-0.0494,-0.0494,-0.0493,0,-0.0423,-0.042,-0.0442,-0.0445,-0.0446,-0.0462,-0.0464,-0.0477,-0.0476,-0.0493,-0.0497,-0.0496,-0.051,-0.0507,-0.0524,-0.0522,-0.0548,-0.0544,-0.0546,-0.0545,-0.0563,-0.0561,-0.0621,-0.0629,-0.0575,-0.0576,-0.0576,0,-0.0452,-0.0467,-0.0471,-0.0478,-0.0482,-0.0494,-0.0502,-0.0496,-0.0504,-0.0512,-0.0523,-0.0536,-0.0546,-0.0569,-0.057,-0.0582,-0.0579,-0.0599,-0.058,-0.0581,-0.0579,-0.0578,-0.0579,-0.0603,-0.0603,-0.0604,-0.0604,0,-0.0504,-0.0501,-0.0512,-0.0521,-0.053,-0.0537,-0.0544,-0.0551,-0.0545,-0.0555,-0.0568,-0.0576,-0.0591,-0.0604,-0.0615,-0.0618,-0.061,-0.061,-0.0614,-0.0617,-0.0617,-0.0617,-0.0556,-0.0609,-0.0608,-0.0608,-0.0608,-0.0607,-0.0542,-0.0554,-0.0558,-0.057,-0.0574,-0.058,-0.0591,-0.0591,-0.0602,-0.0613,-0.0608,-0.0624,-0.0629,-0.0642,-0.0646,-0.0658,-0.0651,-0.0658,-0.066,-0.0662,-0.0664,-0.0614,-0.066,-0.066,-0.066,-0.066,-0.066,0,-0.0594,-0.0595,-0.0605,-0.0614,-0.0623,-0.0613,-0.0619,-0.0628,-0.0641,-0.0646,-0.0656,-0.0671,-0.0682,-0.0683,-0.0694,-0.0704,-0.07,-0.0707,-0.0706,-0.0707,-0.067,-0.0665,-0.0709,-0.0709,-0.0709,-0.0709,-0.0709,-0.0709,-0.0622,-0.0641,-0.0638,-0.0659,-0.0661,-0.0675,-0.0679,-0.0684,-0.0688,-0.0705,-0.0714,-0.0714,-0.0717,-0.0728,-0.0738,-0.0738,-0.0743,-0.0751,-0.075,-0.0715,-0.071,-0.0705,-0.07,-0.0752,-0.0752,-0.0786,-0.0786,-0.0786]},{"header":{"parameterUnit":"m.s-1","parameterCategory":1,"la1":30.2991,"la2":30.254,"lo1":-89.0895,"lo2":-89.0444,"dy":0.0017,"dx":0.0017,"nx":28,"ny":28,"refTime":"2024-12-03T03:00:00:Z","depth":0,"parameterNumber":3,"parameterNumberName":"V-component_of_WINDS"},"data":[0,0,0,0,0,0,0,0,0,0,0,0,0,0,0,0,0,0,0,0,0,0,0,0,0,0,0,0,0,0,0,0,0,0,0,0,0,0,0,0,0,0,0,0,0,0,0,0,0,0,0,0,0,0,0,0,0,0,-4.2061,-4.2062,0,-4.219,-4.2191,-4.2193,-4.2149,-4.2146,-4.2143,-4.2141,-4.2269,-4.2274,-4.228,0,0,0,0,0,0,0,0,0,0,0,0,0,-4.1772,-4.1777,-4.206,-4.2062,-4.2064,-4.2189,-4.2191,-4.2193,-4.2149,-4.2146,-4.2143,-4.2139,-4.2267,-4.2274,-4.2281,0,0,0,0,0,0,0,0,0,0,0,0,0,-4.1899,-4.1779,-4.206,-4.2057,-4.2058,-4.2189,-4.2191,-4.2193,-4.215,-4.2146,-4.2142,-4.2138,-4.2264,-4.2273,-4.2282,-4.2422,0,0,-4.2309,-4.2313,0,0,0,0,0,0,0,0,-4.1891,-4.1909,-4.2056,-4.2058,-4.2059,-4.2149,-4.2136,-4.227,-4.2151,-4.2115,-4.2141,-4.2136,-4.2232,-4.2243,-4.2277,-4.2428,-4.2433,-4.231,-4.2316,-4.232,-4.2322,0,0,0,0,0,0,0,-4.1883,-4.1903,-4.2111,-4.2058,-4.206,-4.2048,-4.2061,-4.2161,-4.2195,-4.2118,-4.2115,-4.2131,-4.2232,-4.2268,-4.2279,-4.2435,-4.231,-4.2318,-4.2324,-4.2327,-4.2707,-4.2712,0,0,0,0,0,0,-4.1874,-4.1896,-4.2107,-4.2115,-4.1963,-4.2057,-4.2072,-4.2124,-4.2194,-4.2201,-4.2135,-4.2129,-4.2255,-4.2269,-4.2284,-4.2452,-4.232,-4.2328,-4.2333,-4.2702,-4.2708,-4.2713,0,0,0,0,0,0,-4.1868,-4.1893,-4.2102,-4.2005,-4.2031,-4.2066,-4.2126,-4.2129,-4.2165,-4.2207,-4.2212,-4.2166,-4.2252,-4.2271,-4.2388,-4.2456,-4.2332,-4.234,-4.2697,-4.2704,-4.2711,-4.279,0,0,0,0,0,0,-4.186,-4.1891,-4.1946,-4.2007,-4.2036,-4.2206,-4.213,-4.2135,-4.2181,-4.2175,-4.2238,-4.2244,-4.225,-4.2375,-4.2397,-4.2466,-4.2347,-4.2691,-4.27,-4.2708,-4.2781,-4.2799,-4.2814,0,0,0,0,0,-4.1849,-4.1962,-4.1949,-4.1974,-4.2106,-4.221,-4.2227,-4.2233,-4.2187,-4.2242,-4.2268,-4.2242,-4.2445,-4.2387,-4.2412,-4.2484,-4.2687,-4.2698,-4.2708,-4.2774,-4.2795,-4.2813,0,0,0,0,0,0,-4.1907,-4.197,-4.1956,-4.2092,-4.2146,-4.2203,-4.2272,-4.2255,-4.2322,-4.2313,-4.2317,-4.2331,-4.2451,-4.2479,-4.2414,-4.2623,-4.2559,-4.2575,-4.2601,-4.2621,-4.2637,-4.2628,-4.2355,0,0,0,0,0,-4.1936,-4.2017,-4.2067,-4.2182,-4.221,-4.2236,-4.2282,-4.2282,-4.2338,-4.236,-4.2395,-4.2449,-4.2524,-4.2574,-4.2646,-4.2785,-4.2798,-4.2847,-4.2863,-4.2876,-4.289,-4.2965,-4.2987,-4.2748,-4.2748,-4.2747,0,0,-4.1995,-4.204,-4.209,-4.2195,-4.2237,-4.2319,-4.2256,-4.2346,-4.2406,-4.2373,-4.2486,-4.2514,-4.2574,-4.2703,-4.2761,-4.2729,-4.2959,-4.289,-4.29,-4.2906,-4.2978,-4.3,-4.3021,-4.2755,-4.2754,-4.2752,0,0,-4.2146,-4.2189,-4.2289,-4.2333,-4.2397,-4.2414,-4.2438,-4.2497,-4.2515,-4.2629,-4.2605,-4.2677,-4.2807,-4.2851,-4.289,-4.3058,-4.3035,-4.3081,-4.3165,-4.3238,-4.3257,-4.3273,-4.3333,-4.3354,-4.3094,-4.3095,-4.3095,0,-4.2212,-4.2337,-4.2342,-4.2435,-4.2481,-4.2456,-4.2557,-4.2598,-4.2682,-4.2714,-4.2678,-4.2842,-4.288,-4.3018,-4.3059,-4.3092,-4.3119,-4.3074,-4.3254,-4.3271,-4.3286,-4.3343,-4.3365,-4.31,-4.3099,-4.3099,-4.3098,0,-4.2414,-4.2501,-4.2574,-4.2658,-4.2712,-4.2808,-4.2827,-4.2881,-4.2876,-4.2896,-4.3011,-4.3057,-4.3138,-4.317,-4.3166,-4.3308,-4.3287,-4.3253,-4.3188,-4.3314,-4.3367,-4.3389,-4.3107,-4.3105,-4.3104,-4.3102,0,0,-4.2605,-4.2691,-4.2718,-4.2755,-4.2825,-4.2891,-4.2985,-4.3066,-4.3111,-4.317,-4.3249,-4.336,-4.3329,-4.3373,-4.3373,-4.3438,-4.3567,-4.3395,-4.3397,-4.3425,-4.3725,-4.375,-4.3775,-4.3552,-4.3556,-4.356,-4.372,0,-4.2762,-4.2929,-4.2937,-4.3089,-4.3168,-4.3145,-4.3227,-4.3278,-4.3299,-4.3368,-4.3391,-4.347,-4.3423,-4.3449,-4.3512,-4.3538,-4.3627,-4.3526,-4.3624,-4.3627,-4.361,-4.3803,-4.383,-4.3979,-4.374,-4.3744,-4.3747,0,-4.2967,-4.3034,-4.3194,-4.3252,-4.3285,-4.3359,-4.3433,-4.35,-4.3556,-4.3567,-4.3617,-4.3608,-4.3703,-4.3635,-4.3765,-4.3697,-4.3737,-4.3756,-4.3762,-4.3771,-4.3695,-4.3817,-4.4027,-4.4049,-4.3779,-4.3777,-4.3774,0,-4.309,-4.3219,-4.3332,-4.3365,-4.3435,-4.3487,-4.3519,-4.3571,-4.3619,-4.3683,-4.3714,-4.3787,-4.3828,-4.3884,-4.3895,-4.3844,-4.4025,-4.3958,-4.4036,-4.4035,-4.4075,-4.4072,-4.4293,-4.4101,-4.4101,-4.41,-4.41,0,-4.3264,-4.3363,-4.3388,-4.3458,-4.3567,-4.3574,-4.3682,-4.3709,-4.3756,-4.3829,-4.3813,-4.3881,-4.3891,-4.3962,-4.397,-4.4077,-4.4095,-4.4105,-4.4106,-4.4107,-4.4106,-4.4133,-4.4123,-4.4106,-4.4105,-4.4104,-4.4103,0,-4.342,-4.3441,-4.3562,-4.3619,-4.3636,-4.3714,-4.3762,-4.3827,-4.3847,-4.3939,-4.3961,-4.3991,-4.4073,-4.4089,-4.4186,-4.4192,-4.4318,-4.4309,-4.43,-4.4299,-4.4375,-4.4368,-4.4622,-4.4655,-4.4441,-4.4443,-4.4445,0,-4.3529,-4.3605,-4.367,-4.3719,-4.3753,-4.3832,-4.388,-4.389,-4.3941,-4.4011,-4.4068,-4.4148,-4.4214,-4.4346,-4.4375,-4.4449,-4.4441,-4.4525,-4.4452,-4.445,-4.4442,-4.4437,-4.4444,-4.4539,-4.4541,-4.4543,-4.4544,0,-4.3722,-4.3729,-4.38,-4.3876,-4.3935,-4.3995,-4.4051,-4.4092,-4.4108,-4.4166,-4.4251,-4.4302,-4.4401,-4.4481,-4.4555,-4.4585,-4.4568,-4.4567,-4.4589,-4.459,-4.4582,-4.4587,-4.4338,-4.4561,-4.456,-4.4558,-4.4557,-4.4557,-4.3858,-4.3924,-4.398,-4.4061,-4.4104,-4.4158,-4.4222,-4.425,-4.4321,-4.4404,-4.4404,-4.4497,-4.455,-4.4647,-4.4682,-4.4754,-4.4727,-4.4759,-4.4767,-4.4774,-4.4781,-4.4571,-4.4767,-4.4767,-4.4766,-4.4766,-4.4765,0,-4.4049,-4.4084,-4.4158,-4.4238,-4.4301,-4.4281,-4.4342,-4.4396,-4.4478,-4.453,-4.4594,-4.4691,-4.4769,-4.4804,-4.488,-4.493,-4.4924,-4.495,-4.4946,-4.4953,-4.4801,-4.4775,-4.4954,-4.4954,-4.4954,-4.4954,-4.4953,-4.4953,-4.4156,-4.4267,-4.428,-4.4412,-4.4446,-4.4537,-4.4574,-4.4622,-4.4664,-4.4773,-4.4838,-4.4861,-4.4907,-4.4986,-4.5055,-4.5063,-4.5092,-4.5122,-4.5126,-4.4983,-4.4964,-4.4946,-4.4921,-4.5128,-4.5128,-4.5272,-4.5274,-4.5275]}]]